sat.trackr.live / text

‹ back to catalog

STARLINK-36083

NORAD 66857 · 2025-281K

PAYLOAD ACTIVE UNKNOWN

§ Identity

Operator
Country
US
Launch date
2025-12-02
Launch site
AFETR
Launch vehicle
Mass (kg)
RCS (m²)

Purposes: comms

External: N2YO · Heavens-Above · Gunter

§ Orbital elements

Epoch: 2026-09-20T21:03:28.802880Z

Period
94.27 min
Inclination
43.0041°
Eccentricity
0.0001535
Mean motion
15.27587521 rev/d
Perigee alt
482.0 km
Apogee alt
484.1 km
Semi-major
6,861.2 km
B*
5.2979e-4
RAAN
321.4460°
Arg perigee
275.9420°
Mean anomaly
84.1257°
Rev number
4,603

§ Raw data

STARLINK-360831 66857U 25281K   26263.87741670  .00014348  00000+0  52979-3 0  99932 66857  43.0041 321.4460 0001535 275.9420  84.1257 15.27587521 46032

JSON: /api/v1/satellites/66857 · /tle

For live sub-satellite position, see the globe view (requires WebGL).

§ Visibility from observer

Set your observer location to see the next 7 days of passes ≥ 10°. The values pass through the URL so the page stays shareable.

No JS? Fill the form by hand. The geolocation button needs JavaScript.